Regional Weather Roundup
Issued by NWS

Home | Current Version | Previous Version | Graphics & Text | Print | Product List | Glossary On
Versions: 1 2 3 4 5 6 7 8 9 10 11 12 13 14 15 16 17 18 19 20 21 22 23 24 25 26 27 28 29 30 31 32 33 34 35 36 37 38 39 40 41 42 43 44 45 46 47 48 49 50
000
ASUS43 KMPX 012301
RWRMN
WEATHER ROUNDUP FOR MINNESOTA
NATIONAL WEATHER SERVICE TWIN CITIES/CHANHASSEN MN
600 PM CDT WED JUL 01 2015


NOTE: "FAIR" INDICATES FEW OR NO CLOUDS BELOW 12,000 FEET WITH NO
SIGNIFICANT WEATHER AND/OR OBSTRUCTIONS TO VISIBILITY. N/A MEANS
CURRENT SKY AND/OR WEATHER CONDITIONS ARE NOT AVAILABLE.

MNZ060>063-068>070-020000-
   Twin Cities Metro

CITY           SKY/WX    TMP DP  RH WIND       PRES   REMARKS
TWIN CITIES    MOSUNNY   72  52  49 S5        29.99S
ST PAUL        SUNNY     72  55  55 S3        29.99S
CRYSTAL        MOSUNNY   75  52  44 E7        29.98S
BLAINE         MOSUNNY   75  54  46 CALM      29.99S
LAKEVILLE      MOSUNNY   66  54  63 SE3       30.00S
EDEN PRAIRIE   SUNNY     70  50  49 S5        29.99S
SOUTH ST PAUL  SUNNY     72  54  52 SW6       29.99S
LAKE ELMO      FAIR      73  54  49 E7        30.00S
$$
MNZ001>005-007-008-013>017-022>024-027-028-020000-
   Northwest Minnesota

CITY           SKY/WX    TMP DP  RH WIND       PRES   REMARKS
BEMIDJI        PTSUNNY   74  59  58 N3        29.96S
HALLOCK        MOSUNNY   79  57  47 W7        29.93S
ROSEAU         MOSUNNY   77  61  57 W3        29.94F
WARROAD        MOSUNNY   77  61  57 W5        29.94S
THIEF RVR FALL SUNNY     77  57  50 W7        29.96R
CROOKSTON      MOSUNNY   77  61  57 SW9       29.95S
FOSSTON        MOSUNNY   77  61  57 W12       29.97R
DETROIT LAKES  SUNNY     73  55  53 SW8       29.99S
MOORHEAD       SUNNY     73  61  64 S8        29.97S
PARK RAPIDS    CLOUDY    75  57  53 SW9       29.97S
MAHNOMEN       FAIR      75  59  56 W13       29.97R
$$
MNZ006-009>011-018-025>026-020000-
   North Central Minnesota

CITY           SKY/WX    TMP DP  RH WIND       PRES   REMARKS
BAUDETTE       SUNNY     78  51  38 CALM      29.94S
FLAG ISLAND    MOSUNNY   72  61  68 S8        29.92F
INTL FALLS     SUNNY     78  53  41 W3        29.94F
WASKISH        SUNNY     77  52  41 SW5       29.95S
BIG FORK       MOSUNNY  N/A N/A N/A SW6       29.96S
LONGVILLE      PTSUNNY   73  57  56 S6        29.97S
GRAND RAPIDS   MOSUNNY   73  55  53 SW3       29.98R
CRANE LAKE     SUNNY     73  48  40 W2        29.97F
ORR            SUNNY     75  50  41 CALM      29.94S
COOK           SUNNY     73  54  49 W5        29.97S
WALKER         DRIZZLE   69  64  85 CALM      29.96S
$$
MNZ012-019>021-037-020000-
   Northeast Minnesota

CITY           SKY/WX    TMP DP  RH WIND       PRES   REMARKS
DULUTH         MOSUNNY   70  55  59 SE9       29.99S
ELY            SUNNY     72  50  46 CALM      29.97S
HIBBING        MOSUNNY   74  55  51 SE5       29.97S
EVELETH        PTSUNNY   72  52  49 SW6       29.98S
DULUTH HARBOR  SUNNY     64  61  88 NE8       29.99S
TWO HARBORS    SUNNY     70  55  60 S5        29.98S
SILVER BAY     SUNNY     64  52  63 CALM      29.99S
GRAND MARAIS     N/A     56  50  80 CALM      30.00F
G MARAIS ARPRT MOSUNNY   61  43  51 S6        30.03F
$$
MNZ029>031-032-039>041-046>048-054>057-064-020000-
   West Central Minnesota

CITY           SKY/WX    TMP DP  RH WIND       PRES   REMARKS
FERGUS FALLS   SUNNY     73  57  56 S7        29.97S
WHEATON        SUNNY     70  54  56 SE13      29.99S
MORRIS         SUNNY     73  52  46 SE9       29.98S
ALEXANDRIA     SUNNY     72  54  53 S9        30.01S
ELBOW LAKE     FAIR      72  54  53 S8        29.98F
WADENA           N/A     73  52  46 SW5       29.98F
GLENWOOD       SUNNY     72  55  56 S6        30.01S
APPLETON       SUNNY     73  54  49 S6        29.99R
BENSON         SUNNY     72  54  53 S5        29.99S
ORTONVILLE     SUNNY     72  54  53 SE9       29.98S
MADISON        SUNNY     72  52  49 SE9       29.98S
WILLMAR        FAIR      72  55  56 SE6       30.01S
$$
MNZ033>034-036-042>043-049>051-058-059-020000-
   Central Minnesota

CITY           SKY/WX    TMP DP  RH WIND       PRES   REMARKS
ST CLOUD       SUNNY     73  50  44 VRB5      29.99F
SAUK CENTRE    FAIR      71  55  56 S5        30.00S
PAYNESVILLE    SUNNY     68  52  55 E3        30.01R
AITKIN         MOSUNNY   75  57  53 S6        29.97S
PINE RIVER       N/A     73  57  56 SW6       30.01S
BRAINERD       MOSUNNY   74  53  48 S7        29.98F
STAPLES        MOSUNNY   73  54  49 SW7       29.98F
LONG PRAIRIE   FAIR      72  54  53 SE6       30.01R
LITTLE FALLS   MOSUNNY   73  50  43 CALM      29.99S
LITCHFIELD     SUNNY     72  54  53 SE7       30.01S
BUFFALO        SUNNY     70  49  47 CALM      30.01S
MAPLE LAKE     SUNNY     72  54  53 CALM      30.01F
$$
MNZ037-044-045-052-053-020000-
   East Central Minnesota

CITY           SKY/WX    TMP DP  RH WIND       PRES   REMARKS
PRINCETON      MOSUNNY   75  52  43 CALM      29.99F
MORA           SUNNY     72  50  46 CALM      30.01S
CAMBRIDGE      MOSUNNY   75  55  50 CALM      29.98S
RUSH CITY      MOSUNNY   73  51  47 CALM      30.00R
MOOSE LAKE     SUNNY     72  61  68 CALM      29.97S
HINCKLEY       FAIR      73  54  49 CALM      29.99S
CLOQUET        MOSUNNY   72  54  53 CALM      29.98S
MCGREGOR       MOSUNNY   72  55  56 S7        29.99S
$$
MNZ071>073-080-081-089-090-097-098-020000-
   Southwest Minnesota

CITY           SKY/WX    TMP DP  RH WIND       PRES   REMARKS
MONTEVIDEO     MOSUNNY   70  55  60 S8        30.00S
GRANITE FALLS  CLOUDY    70  51  51 E7        30.01S
CANBY          CLOUDY    69  55  60 E10       29.99S
MARSHALL       MOSUNNY   72  48  43 SE10      29.97S
REDWOOD FALLS  SUNNY     70  51  51 SE10      29.99S
OLIVIA         SUNNY     68  52  56 SE8       29.99S
PIPESTONE      MOSUNNY   73  50  43 SE9       29.97S
WINDOM         SUNNY     70  55  60 E8        29.99S
WORTHINGTON    PTSUNNY   72  50  46 E9        29.97S
JACKSON        MOSUNNY   70  55  60 E12       29.99S
TRACY          CLOUDY    71  55  57 E7        29.99S
SLAYTON        CLOUDY    69  56  63 E10       29.99S
$$
MNZ065>067-074>077-082>085-091>093-020000-
   South Central Minnesota

CITY           SKY/WX    TMP DP  RH WIND       PRES   REMARKS
MANKATO        MOSUNNY   66  50  55 E7        30.00S
NEW ULM        MOSUNNY   68  48  49 E7        29.99F
ST JAMES       MOSUNNY   70  57  64 E6        30.00S
FAIRMONT       MOSUNNY   66  52  59 E7        29.98S
GLENCOE        SUNNY     71  52  51 E7        30.00S
FARIBAULT      MOSUNNY   66  46  48 NE5       30.01S
OWATONNA       MOSUNNY   66  50  55 NE5       30.01S
WASECA         MOSUNNY   64  52  63 E3        30.02S
ALBERT LEA     PTSUNNY   64  52  63 NE6       30.00S
$$
MNZ078>079-086>088-094>096-020000-
   Southeast Minnesota

CITY           SKY/WX    TMP DP  RH WIND       PRES   REMARKS
ROCHESTER      MOSUNNY   63  52  67 NE5       30.02S
RED WING       MOSUNNY   72  52  49 CALM      29.98S
DODGE CENTER   MOSUNNY   64  48  55 E7        30.01S
WINONA         PTSUNNY   70  50  49 CALM      29.99S
AUSTIN         PTSUNNY   63  50  63 E6        30.01R
PRESTON        PTSUNNY   61  52  71 CALM      30.01S
$$
ABBREVIATIONS USED IN REMARKS
   TC - TEMPERATURES IN CELSIUS
  WCI - WIND CHILL INDEX
   HX - HEAT INDEX
  VSB - VISIBILITY
$$



USA.gov is the U.S. government's official web portal to all federal, state and local government web resources and services.